Year,Month,Day,Hour,Minute,Value (Times are PST for temperature in C)
2019,06,15,00,00,15.60
2019,06,15,00,01,15.60
2019,06,15,00,02,15.60
2019,06,15,00,03,15.60
2019,06,15,00,04,15.50
2019,06,15,00,05,15.50
2019,06,15,00,06,15.50
2019,06,15,00,07,15.40
2019,06,15,00,08,15.40
2019,06,15,00,09,15.40
2019,06,15,00,10,15.40
2019,06,15,00,11,15.30
2019,06,15,00,12,15.30
2019,06,15,00,13,15.30
2019,06,15,00,14,15.30
2019,06,15,00,15,15.30
2019,06,15,00,16,15.30
2019,06,15,00,17,15.30
2019,06,15,00,18,15.30
2019,06,15,00,19,15.30
2019,06,15,00,20,15.30
2019,06,15,00,21,15.30
2019,06,15,00,22,15.30
2019,06,15,00,23,15.30
2019,06,15,00,24,15.20
2019,06,15,00,25,15.20
2019,06,15,00,26,15.10
2019,06,15,00,27,15.10
2019,06,15,00,28,15.10
2019,06,15,00,29,15.00
2019,06,15,00,30,15.00
2019,06,15,00,31,15.00
2019,06,15,00,32,15.00
2019,06,15,00,33,15.00
2019,06,15,00,34,15.00
2019,06,15,00,35,15.00
2019,06,15,00,36,15.00
2019,06,15,00,37,15.00
2019,06,15,00,38,15.00
2019,06,15,00,39,15.00
2019,06,15,00,40,15.00
2019,06,15,00,41,15.00
2019,06,15,00,42,15.00
2019,06,15,00,43,15.00
2019,06,15,00,44,15.00
2019,06,15,00,45,15.00
2019,06,15,00,46,15.00
2019,06,15,00,47,15.00
2019,06,15,00,48,15.00
2019,06,15,00,49,15.00
2019,06,15,00,50,15.00
2019,06,15,00,51,15.00
2019,06,15,00,52,15.00
2019,06,15,00,53,15.00
2019,06,15,00,54,15.00
2019,06,15,00,55,15.00
2019,06,15,00,56,15.00
2019,06,15,00,57,15.00
2019,06,15,00,58,14.90
2019,06,15,00,59,14.90
2019,06,15,01,00,14.90
2019,06,15,01,01,14.90
2019,06,15,01,02,14.90
2019,06,15,01,03,14.90
2019,06,15,01,04,14.90
2019,06,15,01,05,14.90
2019,06,15,01,06,14.90
2019,06,15,01,07,14.90
2019,06,15,01,08,14.90
2019,06,15,01,09,14.90
2019,06,15,01,10,14.90
2019,06,15,01,11,14.90
2019,06,15,01,12,14.90
2019,06,15,01,13,14.90
2019,06,15,01,14,14.90
2019,06,15,01,15,14.90
2019,06,15,01,16,14.90
2019,06,15,01,17,14.90
2019,06,15,01,18,14.90
2019,06,15,01,19,14.90
2019,06,15,01,20,14.90
2019,06,15,01,21,14.90
2019,06,15,01,22,14.80
2019,06,15,01,23,14.80
2019,06,15,01,24,14.80
2019,06,15,01,25,14.80
2019,06,15,01,26,14.80
2019,06,15,01,27,14.80
2019,06,15,01,28,14.80
2019,06,15,01,29,14.70
2019,06,15,01,30,14.70
2019,06,15,01,31,14.70
2019,06,15,01,32,14.70
2019,06,15,01,33,14.70
2019,06,15,01,34,14.70
2019,06,15,01,35,14.70
2019,06,15,01,36,14.70
2019,06,15,01,37,14.60
2019,06,15,01,38,14.60
2019,06,15,01,39,14.60
2019,06,15,01,40,14.60
2019,06,15,01,41,14.60
2019,06,15,01,42,14.60
2019,06,15,01,43,14.60
2019,06,15,01,44,14.70
2019,06,15,01,45,14.70
2019,06,15,01,46,14.70
2019,06,15,01,47,14.70
2019,06,15,01,48,14.80
2019,06,15,01,49,14.80
2019,06,15,01,50,14.80
2019,06,15,01,51,14.90
2019,06,15,01,52,15.00
2019,06,15,01,53,15.00
2019,06,15,01,54,15.00
2019,06,15,01,55,15.00
2019,06,15,01,56,15.00
2019,06,15,01,57,15.00
2019,06,15,01,58,15.00
2019,06,15,01,59,15.00
2019,06,15,02,00,15.00
2019,06,15,02,01,15.00
2019,06,15,02,02,14.90
2019,06,15,02,03,14.90
2019,06,15,02,04,14.90
2019,06,15,02,05,14.80
2019,06,15,02,06,14.80
2019,06,15,02,07,14.80
2019,06,15,02,08,14.80
2019,06,15,02,09,14.70
2019,06,15,02,10,14.70
2019,06,15,02,11,14.70
2019,06,15,02,12,14.70
2019,06,15,02,13,14.70
2019,06,15,02,14,14.70
2019,06,15,02,15,14.70
2019,06,15,02,16,14.70
2019,06,15,02,17,14.70
2019,06,15,02,18,14.70
2019,06,15,02,19,14.80
2019,06,15,02,20,14.80
2019,06,15,02,21,14.90
2019,06,15,02,22,14.90
2019,06,15,02,23,15.00
2019,06,15,02,24,15.00
2019,06,15,02,25,15.00
2019,06,15,02,26,15.00
2019,06,15,02,27,15.00
2019,06,15,02,28,15.00
2019,06,15,02,29,15.00
2019,06,15,02,30,15.00
2019,06,15,02,31,15.00
2019,06,15,02,32,15.00
2019,06,15,02,33,14.90
2019,06,15,02,34,14.80
2019,06,15,02,35,14.80
2019,06,15,02,36,14.80
2019,06,15,02,37,14.70
2019,06,15,02,38,14.70
2019,06,15,02,39,14.70
2019,06,15,02,40,14.70
2019,06,15,02,41,14.60
2019,06,15,02,42,14.60
2019,06,15,02,43,14.60
2019,06,15,02,44,14.60
2019,06,15,02,45,14.60
2019,06,15,02,46,14.60
2019,06,15,02,47,14.60
2019,06,15,02,48,14.50
2019,06,15,02,49,14.50
2019,06,15,02,50,14.50
2019,06,15,02,51,14.50
2019,06,15,02,52,14.50
2019,06,15,02,53,14.50
2019,06,15,02,54,14.50
2019,06,15,02,55,14.50
2019,06,15,02,56,14.60
2019,06,15,02,57,14.60
2019,06,15,02,58,14.60
2019,06,15,02,59,14.60
2019,06,15,03,00,14.60
2019,06,15,03,01,14.70
2019,06,15,03,02,14.70
2019,06,15,03,03,14.70
2019,06,15,03,04,14.80
2019,06,15,03,05,14.80
2019,06,15,03,06,14.80
2019,06,15,03,07,14.80
2019,06,15,03,08,14.90
2019,06,15,03,09,14.90
2019,06,15,03,10,15.00
2019,06,15,03,11,15.00
2019,06,15,03,12,15.00
2019,06,15,03,13,15.00
2019,06,15,03,14,15.00
2019,06,15,03,15,15.00
2019,06,15,03,16,15.00
2019,06,15,03,17,15.00
2019,06,15,03,18,15.00
2019,06,15,03,19,15.00
2019,06,15,03,20,15.00
2019,06,15,03,21,15.00
2019,06,15,03,22,15.00
2019,06,15,03,23,15.00
2019,06,15,03,24,15.00
2019,06,15,03,25,15.00
2019,06,15,03,26,15.00
2019,06,15,03,27,15.00
2019,06,15,03,28,15.00
2019,06,15,03,29,15.00
2019,06,15,03,30,15.00
2019,06,15,03,31,15.00
2019,06,15,03,32,15.00
2019,06,15,03,33,15.00
2019,06,15,03,34,15.00
2019,06,15,03,35,15.00
2019,06,15,03,36,15.00
2019,06,15,03,37,15.00
2019,06,15,03,38,15.00
2019,06,15,03,39,15.00
2019,06,15,03,40,14.90
2019,06,15,03,41,14.90
2019,06,15,03,42,14.90
2019,06,15,03,43,14.90
2019,06,15,03,44,14.80
2019,06,15,03,45,14.80
2019,06,15,03,46,14.80
2019,06,15,03,47,14.80
2019,06,15,03,48,14.80
2019,06,15,03,49,14.70
2019,06,15,03,50,14.70
2019,06,15,03,51,14.70
2019,06,15,03,52,14.70
2019,06,15,03,53,14.60
2019,06,15,03,54,14.60
2019,06,15,03,55,14.60
2019,06,15,03,56,14.50
2019,06,15,03,57,14.50
2019,06,15,03,58,14.40
2019,06,15,03,59,14.40
2019,06,15,04,00,14.40
2019,06,15,04,01,14.40
2019,06,15,04,02,14.40
2019,06,15,04,03,14.40
2019,06,15,04,04,14.30
2019,06,15,04,05,14.30
2019,06,15,04,06,14.30
2019,06,15,04,07,14.30
2019,06,15,04,08,14.30
2019,06,15,04,09,14.30
2019,06,15,04,10,14.30
2019,06,15,04,11,14.30
2019,06,15,04,12,14.30
2019,06,15,04,13,14.30
2019,06,15,04,14,14.40
2019,06,15,04,15,14.40
2019,06,15,04,16,14.30
2019,06,15,04,17,14.40
2019,06,15,04,18,14.40
2019,06,15,04,19,14.40
2019,06,15,04,20,14.40
2019,06,15,04,21,14.40
2019,06,15,04,22,14.40
2019,06,15,04,23,14.40
2019,06,15,04,24,14.40
2019,06,15,04,25,14.40
2019,06,15,04,26,14.40
2019,06,15,04,27,14.40
2019,06,15,04,28,14.50
2019,06,15,04,29,14.50
2019,06,15,04,30,14.50
2019,06,15,04,31,14.60
2019,06,15,04,32,14.60
2019,06,15,04,33,14.60
2019,06,15,04,34,14.60
2019,06,15,04,35,14.60
2019,06,15,04,36,14.60
2019,06,15,04,37,14.70
2019,06,15,04,38,14.70
2019,06,15,04,39,14.70
2019,06,15,04,40,14.80
2019,06,15,04,41,14.80
2019,06,15,04,42,14.80
2019,06,15,04,43,14.90
2019,06,15,04,44,15.00
2019,06,15,04,45,15.00
2019,06,15,04,46,15.00
2019,06,15,04,47,15.00
2019,06,15,04,48,15.00
2019,06,15,04,49,15.00
2019,06,15,04,50,15.00
2019,06,15,04,51,15.00
2019,06,15,04,52,15.00
2019,06,15,04,53,15.00
2019,06,15,04,54,15.00
2019,06,15,04,55,15.00
2019,06,15,04,56,15.00
2019,06,15,04,57,15.00
2019,06,15,04,58,15.00
2019,06,15,04,59,15.00
2019,06,15,05,00,15.00
2019,06,15,05,01,14.90
2019,06,15,05,02,14.90
2019,06,15,05,03,14.80
2019,06,15,05,04,14.80
2019,06,15,05,05,14.80
2019,06,15,05,06,14.70
2019,06,15,05,07,14.70
2019,06,15,05,08,14.70
2019,06,15,05,09,14.60
2019,06,15,05,10,14.60
2019,06,15,05,11,14.60
2019,06,15,05,12,14.50
2019,06,15,05,13,14.50
2019,06,15,05,14,14.50
2019,06,15,05,15,14.40
2019,06,15,05,16,14.40
2019,06,15,05,17,14.40
2019,06,15,05,18,14.40
2019,06,15,05,19,14.40
2019,06,15,05,20,14.30
2019,06,15,05,21,14.30
2019,06,15,05,22,14.30
2019,06,15,05,23,14.30
2019,06,15,05,24,14.30
2019,06,15,05,25,14.30
2019,06,15,05,26,14.30
2019,06,15,05,27,14.40
2019,06,15,05,28,14.40
2019,06,15,05,29,14.40
2019,06,15,05,30,14.40
2019,06,15,05,31,14.40
2019,06,15,05,32,14.50
2019,06,15,05,33,14.50
2019,06,15,05,34,14.50
2019,06,15,05,35,14.50
2019,06,15,05,36,14.60
2019,06,15,05,37,14.60
2019,06,15,05,38,14.60
2019,06,15,05,39,14.60
2019,06,15,05,40,14.70
2019,06,15,05,41,14.70
2019,06,15,05,42,14.70
2019,06,15,05,43,14.80
2019,06,15,05,44,14.80
2019,06,15,05,45,14.80
2019,06,15,05,46,14.90
2019,06,15,05,47,15.00
2019,06,15,05,48,15.00
2019,06,15,05,49,15.00
2019,06,15,05,50,15.00
2019,06,15,05,51,15.00
2019,06,15,05,52,15.00
2019,06,15,05,53,15.00
2019,06,15,05,54,15.00
2019,06,15,05,55,15.00
2019,06,15,05,56,15.00
2019,06,15,05,57,15.00
2019,06,15,05,58,15.00
2019,06,15,05,59,15.00
2019,06,15,06,00,15.00
2019,06,15,06,01,14.90
2019,06,15,06,02,14.90
2019,06,15,06,03,14.90
2019,06,15,06,04,14.90
2019,06,15,06,05,14.90
2019,06,15,06,06,14.90
2019,06,15,06,07,14.90
2019,06,15,06,08,14.90
2019,06,15,06,09,14.90
2019,06,15,06,10,14.80
2019,06,15,06,11,14.80
2019,06,15,06,12,14.80
2019,06,15,06,13,14.80
2019,06,15,06,14,14.80
2019,06,15,06,15,14.80
2019,06,15,06,16,14.90
2019,06,15,06,17,14.90
2019,06,15,06,18,15.00
2019,06,15,06,19,15.00
2019,06,15,06,20,15.00
2019,06,15,06,21,15.00
2019,06,15,06,22,15.00
2019,06,15,06,23,15.00
2019,06,15,06,24,15.00
2019,06,15,06,25,15.00
2019,06,15,06,26,15.00
2019,06,15,06,27,15.00
2019,06,15,06,28,15.00
2019,06,15,06,29,15.00
2019,06,15,06,30,15.00
2019,06,15,06,31,15.00
2019,06,15,06,32,15.00
2019,06,15,06,33,15.00
2019,06,15,06,34,15.00
2019,06,15,06,35,15.10
2019,06,15,06,36,15.10
2019,06,15,06,37,15.20
2019,06,15,06,38,15.30
2019,06,15,06,39,15.30
2019,06,15,06,40,15.40
2019,06,15,06,41,15.50
2019,06,15,06,42,15.60
2019,06,15,06,43,15.60
2019,06,15,06,44,15.70
2019,06,15,06,45,15.80
2019,06,15,06,46,15.80
2019,06,15,06,47,15.90
2019,06,15,06,48,15.90
2019,06,15,06,49,15.90
2019,06,15,06,50,16.00
2019,06,15,06,51,16.10
2019,06,15,06,52,16.10
2019,06,15,06,53,16.10
2019,06,15,06,54,16.20
2019,06,15,06,55,16.20
2019,06,15,06,56,16.20
2019,06,15,06,57,16.10
2019,06,15,06,58,16.10
2019,06,15,06,59,16.10
2019,06,15,07,00,16.10
2019,06,15,07,01,16.20
2019,06,15,07,02,16.20
2019,06,15,07,03,16.20
2019,06,15,07,04,16.20
2019,06,15,07,05,16.20
2019,06,15,07,06,16.30
2019,06,15,07,07,16.30
2019,06,15,07,08,16.40
2019,06,15,07,09,16.40
2019,06,15,07,10,16.40
2019,06,15,07,11,16.50
2019,06,15,07,12,16.50
2019,06,15,07,13,16.50
2019,06,15,07,14,16.50
2019,06,15,07,15,16.50
2019,06,15,07,16,16.50
2019,06,15,07,17,16.50
2019,06,15,07,18,16.60
2019,06,15,07,19,16.60
2019,06,15,07,20,16.70
2019,06,15,07,21,16.70
2019,06,15,07,22,16.80
2019,06,15,07,23,16.80
2019,06,15,07,24,16.80
2019,06,15,07,25,16.80
2019,06,15,07,26,16.80
2019,06,15,07,27,16.80
2019,06,15,07,28,16.70
2019,06,15,07,29,16.70
2019,06,15,07,30,16.60
2019,06,15,07,31,16.60
2019,06,15,07,32,16.60
2019,06,15,07,33,16.50
2019,06,15,07,34,16.50
2019,06,15,07,35,16.50
2019,06,15,07,36,16.40
2019,06,15,07,37,16.40
2019,06,15,07,38,16.40
2019,06,15,07,39,16.40
2019,06,15,07,40,16.30
2019,06,15,07,41,16.30
2019,06,15,07,42,16.30
2019,06,15,07,43,16.30
2019,06,15,07,44,16.20
2019,06,15,07,45,16.20
2019,06,15,07,46,16.20
2019,06,15,07,47,16.20
2019,06,15,07,48,16.20
2019,06,15,07,49,16.20
2019,06,15,07,50,16.20
2019,06,15,07,51,16.20
2019,06,15,07,52,16.20
2019,06,15,07,53,16.30
2019,06,15,07,54,16.30
2019,06,15,07,55,16.40
2019,06,15,07,56,16.50
2019,06,15,07,57,16.60
2019,06,15,07,58,16.70
2019,06,15,07,59,16.70
2019,06,15,08,00,16.80
2019,06,15,08,01,16.90
2019,06,15,08,02,17.00
2019,06,15,08,03,17.10
2019,06,15,08,04,17.20
2019,06,15,08,05,17.30
2019,06,15,08,06,17.40
2019,06,15,08,07,17.50
2019,06,15,08,08,17.50
2019,06,15,08,09,17.60
2019,06,15,08,10,17.70
2019,06,15,08,11,17.70
2019,06,15,08,12,17.80
2019,06,15,08,13,17.80
2019,06,15,08,14,17.80
2019,06,15,08,15,17.90
2019,06,15,08,16,17.90
2019,06,15,08,17,17.90
2019,06,15,08,18,17.90
2019,06,15,08,19,17.90
2019,06,15,08,20,17.80
2019,06,15,08,21,17.80
2019,06,15,08,22,17.90
2019,06,15,08,23,18.00
2019,06,15,08,24,18.00
2019,06,15,08,25,18.10
2019,06,15,08,26,18.20
2019,06,15,08,27,18.20
2019,06,15,08,28,18.20
2019,06,15,08,29,18.20
2019,06,15,08,30,18.20
2019,06,15,08,31,18.10
2019,06,15,08,32,18.20
2019,06,15,08,33,18.20
2019,06,15,08,34,18.20
2019,06,15,08,35,18.20
2019,06,15,08,36,18.30
2019,06,15,08,37,18.20
2019,06,15,08,38,18.20
2019,06,15,08,39,18.20
2019,06,15,08,40,18.20
2019,06,15,08,41,18.20
2019,06,15,08,42,18.20
2019,06,15,08,43,18.10
2019,06,15,08,44,18.10
2019,06,15,08,45,18.10
2019,06,15,08,46,18.20
2019,06,15,08,47,18.30
2019,06,15,08,48,18.40
2019,06,15,08,49,18.40
2019,06,15,08,50,18.50
2019,06,15,08,51,18.60
2019,06,15,08,52,18.70
2019,06,15,08,53,18.70
2019,06,15,08,54,18.70
2019,06,15,08,55,18.70
2019,06,15,08,56,18.80
2019,06,15,08,57,18.80
2019,06,15,08,58,18.80
2019,06,15,08,59,18.90
2019,06,15,09,00,18.80
2019,06,15,09,01,18.80
2019,06,15,09,02,18.70
2019,06,15,09,03,18.80
2019,06,15,09,04,18.70
2019,06,15,09,05,18.70
2019,06,15,09,06,18.70
2019,06,15,09,07,18.70
2019,06,15,09,08,18.60
2019,06,15,09,09,18.60
2019,06,15,09,10,18.60
2019,06,15,09,11,18.60
2019,06,15,09,12,18.70
2019,06,15,09,13,18.70
2019,06,15,09,14,18.80
2019,06,15,09,15,18.80
2019,06,15,09,16,18.90
2019,06,15,09,17,18.90
2019,06,15,09,18,19.00
2019,06,15,09,19,19.00
2019,06,15,09,20,19.00
2019,06,15,09,21,19.10
2019,06,15,09,22,19.10
2019,06,15,09,23,19.10
2019,06,15,09,24,19.10
2019,06,15,09,25,19.10
2019,06,15,09,26,19.00
2019,06,15,09,27,18.90
2019,06,15,09,28,18.90
2019,06,15,09,29,18.90
2019,06,15,09,30,18.90
2019,06,15,09,31,18.90
2019,06,15,09,32,19.00
2019,06,15,09,33,19.00
2019,06,15,09,34,19.10
2019,06,15,09,35,19.10
2019,06,15,09,36,19.10
2019,06,15,09,37,19.00
2019,06,15,09,38,19.00
2019,06,15,09,39,18.90
2019,06,15,09,40,18.80
2019,06,15,09,41,18.80
2019,06,15,09,42,18.80
2019,06,15,09,43,18.90
2019,06,15,09,44,18.90
2019,06,15,09,45,18.80
2019,06,15,09,46,18.80
2019,06,15,09,47,18.80
2019,06,15,09,48,18.80
2019,06,15,09,49,18.90
2019,06,15,09,50,18.90
2019,06,15,09,51,19.00
2019,06,15,09,52,19.10
2019,06,15,09,53,19.20
2019,06,15,09,54,19.20
2019,06,15,09,55,19.20
2019,06,15,09,56,19.30
2019,06,15,09,57,19.30
2019,06,15,09,58,19.30
2019,06,15,09,59,19.40
2019,06,15,10,00,19.40
2019,06,15,10,01,19.40
2019,06,15,10,02,19.30
2019,06,15,10,03,19.10
2019,06,15,10,04,19.00
2019,06,15,10,05,19.00
2019,06,15,10,06,19.00
2019,06,15,10,07,19.00
2019,06,15,10,08,19.10
2019,06,15,10,09,19.20
2019,06,15,10,10,19.30
2019,06,15,10,11,19.30
2019,06,15,10,12,19.30
2019,06,15,10,13,19.40
2019,06,15,10,14,19.40
2019,06,15,10,15,19.30
2019,06,15,10,16,19.20
2019,06,15,10,17,19.10
2019,06,15,10,18,19.10
2019,06,15,10,19,19.20
2019,06,15,10,20,19.20
2019,06,15,10,21,19.10
2019,06,15,10,22,19.10
2019,06,15,10,23,19.20
2019,06,15,10,24,19.30
2019,06,15,10,25,19.30
2019,06,15,10,26,19.40
2019,06,15,10,27,19.40
2019,06,15,10,28,19.60
2019,06,15,10,29,19.70
2019,06,15,10,30,19.70
2019,06,15,10,31,19.70
2019,06,15,10,32,19.80
2019,06,15,10,33,19.80
2019,06,15,10,34,19.90
2019,06,15,10,35,19.90
2019,06,15,10,36,19.90
2019,06,15,10,37,19.90
2019,06,15,10,38,19.90
2019,06,15,10,39,19.90
2019,06,15,10,40,19.80
2019,06,15,10,41,19.70
2019,06,15,10,42,19.70
2019,06,15,10,43,19.70
2019,06,15,10,44,19.70
2019,06,15,10,45,19.80
2019,06,15,10,46,19.80
2019,06,15,10,47,19.80
2019,06,15,10,48,19.90
2019,06,15,10,49,20.00
2019,06,15,10,50,20.00
2019,06,15,10,51,20.00
2019,06,15,10,52,20.00
2019,06,15,10,53,20.00
2019,06,15,10,54,20.00
2019,06,15,10,55,20.00
2019,06,15,10,56,20.00
2019,06,15,10,57,20.00
2019,06,15,10,58,19.90
2019,06,15,10,59,19.90
2019,06,15,11,00,19.90
2019,06,15,11,01,19.90
2019,06,15,11,02,19.90
2019,06,15,11,03,19.90
2019,06,15,11,04,19.80
2019,06,15,11,05,19.80
2019,06,15,11,06,19.90
2019,06,15,11,07,19.80
2019,06,15,11,08,19.90
2019,06,15,11,09,19.90
2019,06,15,11,10,19.80
2019,06,15,11,11,19.60
2019,06,15,11,12,19.40
2019,06,15,11,13,19.20
2019,06,15,11,14,19.10
2019,06,15,11,15,19.10
2019,06,15,11,16,19.20
2019,06,15,11,17,19.20
2019,06,15,11,18,19.40
2019,06,15,11,19,19.50
2019,06,15,11,20,19.50
2019,06,15,11,21,19.60
2019,06,15,11,22,19.60
2019,06,15,11,23,19.60
2019,06,15,11,24,19.60
2019,06,15,11,25,19.60
2019,06,15,11,26,19.60
2019,06,15,11,27,19.70
2019,06,15,11,28,19.70
2019,06,15,11,29,19.80
2019,06,15,11,30,19.80
2019,06,15,11,31,19.90
2019,06,15,11,32,19.90
2019,06,15,11,33,19.90
2019,06,15,11,34,20.00
2019,06,15,11,35,19.90
2019,06,15,11,36,19.70
2019,06,15,11,37,19.60
2019,06,15,11,38,19.50
2019,06,15,11,39,19.40
2019,06,15,11,40,19.50
2019,06,15,11,41,19.60
2019,06,15,11,42,19.70
2019,06,15,11,43,19.80
2019,06,15,11,44,19.90
2019,06,15,11,45,19.90
2019,06,15,11,46,19.80
2019,06,15,11,47,19.70
2019,06,15,11,48,19.70
2019,06,15,11,49,19.70
2019,06,15,11,50,19.70
2019,06,15,11,51,19.80
2019,06,15,11,52,19.90
2019,06,15,11,53,19.90
2019,06,15,11,54,20.00
2019,06,15,11,55,20.00
2019,06,15,11,56,20.10
2019,06,15,11,57,20.20
2019,06,15,11,58,20.30
2019,06,15,11,59,20.30
2019,06,15,12,00,20.30
2019,06,15,12,01,20.30
2019,06,15,12,02,20.30
2019,06,15,12,03,20.30
2019,06,15,12,04,20.30
2019,06,15,12,05,20.20
2019,06,15,12,06,20.20
2019,06,15,12,07,20.20
2019,06,15,12,08,20.20
2019,06,15,12,09,20.20
2019,06,15,12,10,20.30
2019,06,15,12,11,20.30
2019,06,15,12,12,20.30
2019,06,15,12,13,20.20
2019,06,15,12,14,20.10
2019,06,15,12,15,20.00
2019,06,15,12,16,19.90
2019,06,15,12,17,19.70
2019,06,15,12,18,19.50
2019,06,15,12,19,19.40
2019,06,15,12,20,19.30
2019,06,15,12,21,19.30
2019,06,15,12,22,19.30
2019,06,15,12,23,19.50
2019,06,15,12,24,19.60
2019,06,15,12,25,19.80
2019,06,15,12,26,19.90
2019,06,15,12,27,19.90
2019,06,15,12,28,20.00
2019,06,15,12,29,19.90
2019,06,15,12,30,19.90
2019,06,15,12,31,19.90
2019,06,15,12,32,19.90
2019,06,15,12,33,19.80
2019,06,15,12,34,19.70
2019,06,15,12,35,19.70
2019,06,15,12,36,19.70
2019,06,15,12,37,19.80
2019,06,15,12,38,19.80
2019,06,15,12,39,19.90
2019,06,15,12,40,19.90
2019,06,15,12,41,20.00
2019,06,15,12,42,20.10
2019,06,15,12,43,20.10
2019,06,15,12,44,20.10
2019,06,15,12,45,20.20
2019,06,15,12,46,20.20
2019,06,15,12,47,20.30
2019,06,15,12,48,20.30
2019,06,15,12,49,20.30
2019,06,15,12,50,20.30
2019,06,15,12,51,20.30
2019,06,15,12,52,20.20
2019,06,15,12,53,20.20
2019,06,15,12,54,20.10
2019,06,15,12,55,20.00
2019,06,15,12,56,19.90
2019,06,15,12,57,19.90
2019,06,15,12,58,19.70
2019,06,15,12,59,19.70
2019,06,15,13,00,19.70
2019,06,15,13,01,19.70
2019,06,15,13,02,19.80
2019,06,15,13,03,19.80
2019,06,15,13,04,19.80
2019,06,15,13,05,19.90
2019,06,15,13,06,19.90
2019,06,15,13,07,20.00
2019,06,15,13,08,20.00
2019,06,15,13,09,20.00
2019,06,15,13,10,20.00
2019,06,15,13,11,20.10
2019,06,15,13,12,20.10
2019,06,15,13,13,20.00
2019,06,15,13,14,19.90
2019,06,15,13,15,19.90
2019,06,15,13,16,19.90
2019,06,15,13,17,19.80
2019,06,15,13,18,19.80
2019,06,15,13,19,20.00
2019,06,15,13,20,20.20
2019,06,15,13,21,20.30
2019,06,15,13,22,20.30
2019,06,15,13,23,20.30
2019,06,15,13,24,20.30
2019,06,15,13,25,20.40
2019,06,15,13,26,20.40
2019,06,15,13,27,20.30
2019,06,15,13,28,20.20
2019,06,15,13,29,20.10
2019,06,15,13,30,20.10
2019,06,15,13,31,20.10
2019,06,15,13,32,20.10
2019,06,15,13,33,20.20
2019,06,15,13,34,20.20
2019,06,15,13,35,20.20
2019,06,15,13,36,20.30
2019,06,15,13,37,20.40
2019,06,15,13,38,20.50
2019,06,15,13,39,20.50
2019,06,15,13,40,20.50
2019,06,15,13,41,20.50
2019,06,15,13,42,20.30
2019,06,15,13,43,20.30
2019,06,15,13,44,20.40
2019,06,15,13,45,20.50
2019,06,15,13,46,20.60
2019,06,15,13,47,20.70
2019,06,15,13,48,20.80
2019,06,15,13,49,20.80
2019,06,15,13,50,20.80
2019,06,15,13,51,20.90
2019,06,15,13,52,20.80
2019,06,15,13,53,20.70
2019,06,15,13,54,20.60
2019,06,15,13,55,20.60
2019,06,15,13,56,20.60
2019,06,15,13,57,20.70
2019,06,15,13,58,20.70
2019,06,15,13,59,20.70
2019,06,15,14,00,20.70
2019,06,15,14,01,20.80
2019,06,15,14,02,20.80
2019,06,15,14,03,20.80
2019,06,15,14,04,20.70
2019,06,15,14,05,20.70
2019,06,15,14,06,20.80
2019,06,15,14,07,20.80
2019,06,15,14,08,20.90
2019,06,15,14,09,20.90
2019,06,15,14,10,20.80
2019,06,15,14,11,20.80
2019,06,15,14,12,20.70
2019,06,15,14,13,20.60
2019,06,15,14,14,20.60
2019,06,15,14,15,20.60
2019,06,15,14,16,20.70
2019,06,15,14,17,20.70
2019,06,15,14,18,20.60
2019,06,15,14,19,20.60
2019,06,15,14,20,20.60
2019,06,15,14,21,20.50
2019,06,15,14,22,20.60
2019,06,15,14,23,20.60
2019,06,15,14,24,20.70
2019,06,15,14,25,20.70
2019,06,15,14,26,20.80
2019,06,15,14,27,20.80
2019,06,15,14,28,20.80
2019,06,15,14,29,20.80
2019,06,15,14,30,20.80
2019,06,15,14,31,20.90
2019,06,15,14,32,21.00
2019,06,15,14,33,21.00
2019,06,15,14,34,21.00
2019,06,15,14,35,21.00
2019,06,15,14,36,21.00
2019,06,15,14,37,21.10
2019,06,15,14,38,21.10
2019,06,15,14,39,21.20
2019,06,15,14,40,21.40
2019,06,15,14,41,21.50
2019,06,15,14,42,21.60
2019,06,15,14,43,21.70
2019,06,15,14,44,21.90
2019,06,15,14,45,21.90
2019,06,15,14,46,21.90
2019,06,15,14,47,21.90
2019,06,15,14,48,21.90
2019,06,15,14,49,21.80
2019,06,15,14,50,21.80
2019,06,15,14,51,21.90
2019,06,15,14,52,21.90
2019,06,15,14,53,21.80
2019,06,15,14,54,21.80
2019,06,15,14,55,21.80
2019,06,15,14,56,21.80
2019,06,15,14,57,21.80
2019,06,15,14,58,21.80
2019,06,15,14,59,21.80
2019,06,15,15,00,21.80
2019,06,15,15,01,21.90
2019,06,15,15,02,21.90
2019,06,15,15,03,21.90
2019,06,15,15,04,22.00
2019,06,15,15,05,22.10
2019,06,15,15,06,22.10
2019,06,15,15,07,22.00
2019,06,15,15,08,22.00
2019,06,15,15,09,22.10
2019,06,15,15,10,22.10
2019,06,15,15,11,22.20
2019,06,15,15,12,22.30
2019,06,15,15,13,22.40
2019,06,15,15,14,22.60
2019,06,15,15,15,22.60
2019,06,15,15,16,22.50
2019,06,15,15,17,22.50
2019,06,15,15,18,22.40
2019,06,15,15,19,22.40
2019,06,15,15,20,22.40
2019,06,15,15,21,22.40
2019,06,15,15,22,22.40
2019,06,15,15,23,22.30
2019,06,15,15,24,22.30
2019,06,15,15,25,22.30
2019,06,15,15,26,22.30
2019,06,15,15,27,22.30
2019,06,15,15,28,22.30
2019,06,15,15,29,22.40
2019,06,15,15,30,22.40
2019,06,15,15,31,22.40
2019,06,15,15,32,22.40
2019,06,15,15,33,22.40
2019,06,15,15,34,22.40
2019,06,15,15,35,22.50
2019,06,15,15,36,22.60
2019,06,15,15,37,22.60
2019,06,15,15,38,22.70
2019,06,15,15,39,22.80
2019,06,15,15,40,22.80
2019,06,15,15,41,22.80
2019,06,15,15,42,22.80
2019,06,15,15,43,22.80
2019,06,15,15,44,22.70
2019,06,15,15,45,22.70
2019,06,15,15,46,22.80
2019,06,15,15,47,22.80
2019,06,15,15,48,22.90
2019,06,15,15,49,22.80
2019,06,15,15,50,22.80
2019,06,15,15,51,22.90
2019,06,15,15,52,22.90
2019,06,15,15,53,22.80
2019,06,15,15,54,22.80
2019,06,15,15,55,22.90
2019,06,15,15,56,22.90
2019,06,15,15,57,23.00
2019,06,15,15,58,23.10
2019,06,15,15,59,23.20
2019,06,15,16,00,23.30
2019,06,15,16,01,23.40
2019,06,15,16,02,23.40
2019,06,15,16,03,23.40
2019,06,15,16,04,23.40
2019,06,15,16,05,23.40
2019,06,15,16,06,23.30
2019,06,15,16,07,23.30
2019,06,15,16,08,23.30
2019,06,15,16,09,23.20
2019,06,15,16,10,23.20
2019,06,15,16,11,23.10
2019,06,15,16,12,23.00
2019,06,15,16,13,22.90
2019,06,15,16,14,22.90
2019,06,15,16,15,22.90
2019,06,15,16,16,22.90
2019,06,15,16,17,23.00
2019,06,15,16,18,23.00
2019,06,15,16,19,23.00
2019,06,15,16,20,23.00
2019,06,15,16,21,23.10
2019,06,15,16,22,23.10
2019,06,15,16,23,23.10
2019,06,15,16,24,23.00
2019,06,15,16,25,23.00
2019,06,15,16,26,22.90
2019,06,15,16,27,22.90
2019,06,15,16,28,22.90
2019,06,15,16,29,22.90
2019,06,15,16,30,23.00
2019,06,15,16,31,23.10
2019,06,15,16,32,23.20
2019,06,15,16,33,23.30
2019,06,15,16,34,23.30
2019,06,15,16,35,23.30
2019,06,15,16,36,23.30
2019,06,15,16,37,23.40
2019,06,15,16,38,23.40
2019,06,15,16,39,23.40
2019,06,15,16,40,23.40
2019,06,15,16,41,23.50
2019,06,15,16,42,23.60
2019,06,15,16,43,23.60
2019,06,15,16,44,23.70
2019,06,15,16,45,23.70
2019,06,15,16,46,23.80
2019,06,15,16,47,23.80
2019,06,15,16,48,23.70
2019,06,15,16,49,23.50
2019,06,15,16,50,23.40
2019,06,15,16,51,23.30
2019,06,15,16,52,23.30
2019,06,15,16,53,23.30
2019,06,15,16,54,23.30
2019,06,15,16,55,23.30
2019,06,15,16,56,23.30
2019,06,15,16,57,23.30
2019,06,15,16,58,23.30
2019,06,15,16,59,23.40
2019,06,15,17,00,23.40
2019,06,15,17,01,23.40
2019,06,15,17,02,23.50
2019,06,15,17,03,23.50
2019,06,15,17,04,23.50
2019,06,15,17,05,23.50
2019,06,15,17,06,23.60
2019,06,15,17,07,23.60
2019,06,15,17,08,23.70
2019,06,15,17,09,23.70
2019,06,15,17,10,23.70
2019,06,15,17,11,23.60
2019,06,15,17,12,23.50
2019,06,15,17,13,23.40
2019,06,15,17,14,23.40
2019,06,15,17,15,23.40
2019,06,15,17,16,23.40
2019,06,15,17,17,23.40
2019,06,15,17,18,23.40
2019,06,15,17,19,23.30